Flag for U.S.A. Weather past 2 weeks in Chula Vista, California, U.S.A.

Now
63 °F

Sunny.


Feels Like: 63 °F
Forecast: 49 / 68 °F
Wind: 10 mph from West

Location: Brown Field Municipal Airport

Current Time: Feb 26, 2015 at 4:37:07 PM

Latest Report: Feb 26, 2015 at 3:53 PM


Visibility: 10 mi

Pressure: 29.85 "Hg

Humidity: 65%

Dew point: 51 °F

Location of Chula VistaLocation

Historic Weather in Chula Vista — Graph

°F

Chula Vista temperature yesterday

Maximum temperature yesterday: 69 °F (at 12:53 PM)
Minimum temperature yesterday: 45 °F (at 3:53 AM)
Average temperature yesterday: 56 °F

Past Weeks' High & Low Weather Summary

 TemperatureHumidityPressure
High84 °F (Feb 12, 12:53 PM)100% (Feb 16, 1:53 AM)30.22 "Hg (Feb 16, 1:53 AM)
Low45 °F (Feb 24, 4:53 AM)11% (Feb 12, 11:53 AM)29.85 "Hg (Feb 26, 2:53 PM)
Average61 °F61%30.02 "Hg
* Reported Feb 11 2:53 PM — Feb 26 2:53 PM, Chula Vista, Weather by CustomWeather, © 2015

Note: Actual official high and low records may vary slightly from our data, if they occured in-between our weather recording intervals... More about our weather records

Advertising

Chula Vista weather history for previous 24 hours

 ConditionsComfort  
Time TempWeatherWind HumidityBarometerVisibility
2:53 PM
Thu, Feb 26
66 °FSunny.8 mph56%29.85 "Hg10 mi
1:53 PM65 °FSunny.10 mph61%29.86 "Hg10 mi
12:53 PM65 °FSunny.8 mph61%29.88 "Hg10 mi
11:53 AM65 °FSunny.5 mph59%29.92 "Hg10 mi
10:53 AM65 °FSunny.5 mph61%29.94 "Hg8 mi
9:53 AM59 °FPartly sunny.No wind75%29.96 "Hg6 mi
8:53 AM56 °FFog.3 mph90%29.98 "Hg5 mi
7:52 AM54 °FPartly sunny.No wind80%29.98 "Hg10 mi
6:53 AM49 °FSunny.No wind84%29.94 "Hg10 mi
5:53 AM47 °FClear.7 mph86%29.92 "Hg10 mi
4:53 AM48 °FClear.6 mph86%29.94 "Hg10 mi
3:53 AM47 °FClear.5 mph90%29.96 "Hg10 mi
2:53 AM49 °FFog.5 mph93%29.96 "Hg6 mi
1:53 AM45 °FClear.7 mph93%29.98 "Hg10 mi
12:53 AM52 °FClear.3 mph86%30.01 "Hg10 mi
11:53 PM
Wed, Feb 25
51 °FClear.No wind89%30.02 "Hg10 mi
10:53 PM52 °FClear.No wind89%30.01 "Hg10 mi
9:53 PM51 °FClear.3 mph92%30.02 "Hg10 mi
8:53 PM51 °FClear.5 mph92%30.03 "Hg10 mi
7:53 PM55 °FClear.No wind87%30.04 "Hg10 mi
6:53 PM57 °FClear.5 mph81%30.03 "Hg10 mi
5:53 PM58 °FClear.3 mph78%30.04 "Hg10 mi
4:53 PM61 °FSunny.7 mph70%30.03 "Hg10 mi
Weather by CustomWeather, © 2015

See weather overviewHow to use our weather pages